Location: Brno
(49.2000°N, 16.6330°E)
Time: 22:31:40
(UTC+02:00)

Explorer 11/Cluster Stage 4 - Pass Details

Date: 02 August 2021
Orbit: 467 x 1257 km, 28.8° (Epoch: 17 September)

Event Time Altitude Azimuth Distance (km) Brightness Sun altitude
Rises 11:42:14 0° 237° (WSW) 4,173 10.3 54.8°
Reaches altitude 10° 11:46:28 10° 218° (SW) 3,226 10.0 55.1°
Maximum altitude 11:51:02 16° 184° (S) 2,757 10.1 55.5°
Drops below altitude 10° 11:55:29 10° 150° (SSE) 3,129 10.4 55.9°
Sets 11:59:30 0° 131° (SE) 3,988 10.7 56.2°
